{"data":{"norad_id":53403,"intl_designator":"2022-097R","name":"STARLINK-4507","alt_names":[],"object_type":"PAYLOAD","status":"ACTIVE","operator":null,"country":"US","launch_date":"2022-08-10","launch_site_code":"AFETR","launch_vehicle":null,"mission":null,"orbit_class":"UNKNOWN","rcs_meters":null,"size_class":null,"mass_kg":null,"dimensions":null,"purposes":["comms"],"wikipedia_slug":null,"has_3d_model":false,"image_url":null,"decayed_at":null,"tle_current":{"epoch":"2026-05-25T03:37:05.695104Z","epoch_age_seconds":57920,"freshness":"FRESH","line1":"1 53403U 22097R   26145.15076036 -.00001201  00000+0 -57391-4 0  9995","line2":"2 53403  53.2128 141.2209 0001116  76.6981 283.4136 15.08833968210059","mean_motion":15.08833968,"eccentricity":0.0001116,"inclination_deg":53.2128,"raan_deg":141.2209,"arg_perigee_deg":76.6981,"mean_anomaly_deg":283.4136,"bstar":-5.7391e-5,"rev_number":21005,"period_min":95.437936216982,"perigee_km":538.98978892736,"apogee_km":540.53386394542,"semimajor_km":6917.8988264364,"source":"CELESTRAK","updated_at":"2026-05-25T13:38:17.398562Z"}}}